Observations for Trim Patrick St
| Time | AQI | Temp °C | Hum % | Pres Pa | CO μg/m³ | H₂S μg/m³ | NO μg/m³ | NO₂ μg/m³ | O₃ μg/m³ | SO₂ μg/m³ | PM1 μg/m³ | PM2.5 μg/m³ | PM10 μg/m³ |
|---|---|---|---|---|---|---|---|---|---|---|---|---|---|
| Thursday 27 August 2026 | |||||||||||||
| 19:54 | 3 | 18.9 | 82 | 38,460 | 0.02 | 5.31 | 0.63 | 13.36 | 52.59 | 1.71 | 19.14 | 27.38 | 30.12 |
| 19:53 | 3 | 18.9 | 82 | 38,460 | 0.03 | 6.42 | 0.6 | 21.73 | 42.59 | 1.62 | 20 | 26.7 | 29.37 |
| 19:52 | 3 | 19 | 82 | 38,460 | 0.03 | 7.2 | 0.57 | 22.32 | 42.85 | 2.06 | 19.14 | 25.32 | 27.85 |
| 19:51 | 3 | 18.9 | 82 | 38,460 | 0.01 | 7.18 | 0.82 | 29.31 | 41.7 | 0.75 | 16.57 | 24.64 | 27.1 |
| 19:49 | 3 | 19 | 81 | 38,460 | 0.05 | 6.78 | 0.87 | 21.01 | 46.82 | 1.55 | 17.43 | 24.66 | 27.13 |
| 19:48 | 3 | 19 | 81 | 38,460 | 0.01 | 6.55 | 1.02 | 20.99 | 46.51 | 0.98 | 18.29 | 26.77 | 29.44 |
| 19:47 | 3 | 19 | 81 | 38,460 | 0.01 | 4.95 | 1.16 | 14.71 | 52.7 | 1.1 | 17.43 | 24.67 | 27.14 |
| 19:44 | 3 | 19.1 | 81 | 38,460 | 0.01 | 4.1 | 0.66 | 11.91 | 52.71 | 2.08 | 15.71 | 24.7 | 27.17 |
| 19:41 | 3 | 19.1 | 81 | 38,460 | 0 | 4.44 | 0.61 | 12.53 | 53.55 | 1.94 | 15.71 | 24.71 | 27.18 |
| 19:40 | 3 | 19.1 | 81 | 38,460 | 0 | 4.44 | 0.61 | 12.67 | 53.79 | 1.51 | 18.29 | 26.12 | 27.02 |
| 19:39 | 3 | 19.1 | 81 | 38,460 | 0 | 4.58 | 0.68 | 12.23 | 54.15 | 1.35 | 20 | 27.52 | 30.27 |
| 19:38 | 3 | 19.1 | 81 | 38,460 | 0 | 4.76 | 0.71 | 12.65 | 54.2 | 1.03 | 15.71 | 24.74 | 27.21 |
| 19:37 | 3 | 19.2 | 81 | 38,460 | 0 | 4.28 | 0.88 | 12.59 | 53.63 | 1.15 | 19.14 | 28.24 | 31.07 |
| 19:36 | 3 | 19.2 | 81 | 38,460 | 0 | 5.05 | 0.93 | 12.75 | 54.52 | 1.69 | 18.29 | 26.15 | 26.39 |
| 19:35 | 3 | 19.2 | 80 | 38,460 | 0 | 4.55 | 1.03 | 12.57 | 53.77 | 1.15 | 17.43 | 26.86 | 27.1 |
| 19:34 | 3 | 19.2 | 80 | 38,460 | 0 | 4.89 | 1.16 | 12.55 | 54.31 | 1.39 | 19.14 | 26.87 | 29.56 |
| 19:33 | 3 | 19.3 | 80 | 38,460 | 0 | 5.02 | 1.3 | 13.03 | 53.38 | 1.67 | 18.29 | 24.77 | 27.25 |
| 19:32 | 3 | 19.3 | 80 | 38,460 | 0 | 5.1 | 1.14 | 13.01 | 54.11 | 2.15 | 18.29 | 26.18 | 28.8 |
| 19:31 | 3 | 19.3 | 80 | 38,460 | 0 | 4.73 | 1.05 | 13.22 | 53.94 | 2.37 | 18.29 | 25.48 | 28.03 |
| 19:30 | 3 | 19.3 | 80 | 38,460 | 0 | 4.6 | 0.91 | 11.81 | 54.95 | 2.05 | 19.14 | 26.91 | 29.6 |